Regional Weather Roundup
Issued by NWS

Home | Current Version | Previous Version | Text Only | Print | Product List | Glossary On
Versions: 1 2 3 4 5 6 7 8 9 10 11 12 13 14 15 16 17 18 19 20 21 22 23 24 25 26 27 28 29 30 31 32 33 34 35 36 37 38 39 40 41 42 43 44 45 46 47 48 49 50
000
ASUS43 KTOP 030259
RWRKS

WEATHER ROUNDUP FOR KANSAS
NATIONAL WEATHER SERVICE GOODLAND KS
1000 PM CDT TUE SEP 02 2014

NOTE:  "FAIR" INDICATES FEW OR NO CLOUDS BELOW 12,000 FEET WITH NO
SIGNIFICANT WEATHER AND/OR OBSTRUCTIONS TO VISIBILITY.

KSZ001>006-013>018-027>032-041>047-030400-
NORTHWEST KANSAS

CITY           SKY/WX    TMP DP  RH WIND       PRES   REMARKS
GOODLAND       CLEAR     69  61  75 S12       29.96R
HAYS           MOCLDY    75  64  69 SE8       29.93S
HILL CITY      CLEAR     73  66  78 S5        29.93R
RUSSELL        PTCLDY    74  68  81 SE9       29.92R
$$

KSZ061>065-074>080-084>089-030400-
SOUTHWEST KANSAS

CITY           SKY/WX    TMP DP  RH WIND       PRES   REMARKS
DODGE CITY     MOCLDY    76  68  76 SE10      29.95R
ELKHART          N/A     69  61  76 SE7         N/A
GARDEN CITY    CLEAR     72  65  78 SE8       29.95R
GREAT BEND     PTCLDY    75  68  78 SE9       29.93S
LIBERAL        CLEAR     79  66  65 E12G18    29.96R
$$

KSZ066>073-081>083-090>101-030400-
SOUTHEAST KANSAS

CITY           SKY/WX    TMP DP  RH WIND       PRES   REMARKS
CHANUTE        CLEAR     74  68  81 SE6       29.98R
COFFEYVILLE    CLEAR     74  69  85 S7        29.97R
HUTCHINSON     PTCLDY    77  68  73 SE9       29.92S THUNDER
NEWTON         MOCLDY    73  63  68 SE8       29.97S
PARSONS        MOCLDY    74  69  85 SE3       29.99R
WICHITA INTL   MOCLDY    79  69  71 SE13      29.92S
WICHITA JABRA  MOCLDY    77  70  79 SE9       29.93S
WINFIELD       MOCLDY    76  69  79 SE9       29.95R
$$

KSZ007>012-019>026-033>040-048>060-102>105-030400-
NORTHEAST KANSAS

CITY           SKY/WX    TMP DP  RH WIND       PRES   REMARKS
CONCORDIA      CLEAR     70  67  90 SE7       29.94R
EMPORIA        CLEAR     72  68  87 SE8       29.97R
LAWRENCE       CLEAR     70  66  87 CALM      29.97R
MANHATTAN      CLEAR     75  68  78 CALM      29.94R
OLATHE IND     CLEAR     72  66  81 SE8       29.99R
OLATHE EXE     CLEAR     70  68  93 CALM      29.98R
SALINA         CLEAR     78  67  68 E7        29.92S
TOPEKA BILLARD CLEAR     73  69  87 E5        29.96R
TOPEKA FORBES  CLEAR     72  69  90 E6        29.96R
$$



USA.gov is the U.S. government's official web portal to all federal, state and local government web resources and services.